Location: Unspecified
(0.0000°N, 0.0000°E)
Time: 03:33:17
(UTC+00:00)

Orbcomm D8 (FM36) - Visible Passes

Search period start: 19 June 2024 00:00
Search period end: 29 June 2024 00:00
Orbit: 770 x 775 km, 45.0° (Epoch: 18 June)

Date Brightness Start Highest point End Pass type
(mag) Time Alt. Az. Time Alt. Az. Time Alt. Az.
19 Jun 10.3 05:35:52 10° S 05:40:23 27° SE 05:44:53 10° ENE visible
19 Jun 10.8 19:56:38 10° WSW 19:59:19 14° SW 20:01:14 12° SSW visible
20 Jun 10.6 04:58:32 10° S 05:02:23 20° SE 05:06:14 10° E visible
20 Jun 10.6 19:17:32 10° W 19:21:18 19° SW 19:25:04 10° S visible
21 Jun 10.9 04:21:32 10° SSE 04:24:22 14° SE 04:27:11 10° ESE visible
21 Jun 10.3 18:38:50 10° WNW 18:43:18 26° SW 18:47:45 10° S visible
22 Jun 8.6 05:26:17 10° SW 05:31:43 90° ENE 05:37:08 10° NE visible
23 Jun 8.8 04:50:02 20° SSW 04:53:45 66° SE 04:59:06 10° NE visible
24 Jun 9.2 04:14:21 38° S 04:15:46 47° SE 04:20:57 10° ENE visible
25 Jun 9.9 03:38:39 32° ESE 03:38:39 32° ESE 03:42:39 10° ENE visible
25 Jun 9.8 05:18:58 12° W 05:23:01 27° NW 05:27:31 10° N visible
26 Jun 11.1 03:02:54 15° E 03:02:54 15° E 03:04:10 10° ENE visible
26 Jun 9.3 04:43:13 28° W 04:45:01 36° NW 04:49:57 10° NNE visible
27 Jun 8.9 04:07:25 49° NNW 04:07:25 49° NNW 04:12:15 10° NNE visible
28 Jun 10.0 03:31:34 32° NNE 03:31:34 32° NNE 03:34:26 10° NE visible
